PBO Station Position Time Series. Reference Frame : NAM14
Format Version,1.1.0
4-character ID,AB50
Station name,MendenhallAK2005
Begin Date, 2005-08-18
End Date, 2019-10-07
Release Date, 2019-10-08
Reference position, 58.4167752200 North Latitude, -134.5453014653 East Longitude, 51.62251 meters elevation,
Date, North (mm), East (mm), Vertical (mm), North Std. Deviation (mm), East Std. Deviation (mm),              Vertical Std. Deviation (mm), Quality,
2005-08-18,0.00, 0.00, 0.00, 2.57, 1.67, 8.07, repro,
2005-08-19,-0.36, 0.20, -0.85, 2.55, 1.64, 7.97, repro,
2005-08-20,-1.58, 0.99, 3.21, 2.54, 1.66, 7.95, repro,
2005-08-21,-0.37, 1.42, 6.72, 2.56, 1.66, 7.98, repro,
2005-08-22,-1.13, 1.06, -4.30, 2.53, 1.69, 8.25, repro,
2005-08-23,0.32, 0.57, 3.32, 2.48, 1.65, 7.89, repro,
2005-08-24,-5.68, 0.76, -5.99, 2.80, 1.81, 8.95, repro,
2005-08-25,-4.83, 0.14, 16.20, 2.57, 1.66, 8.03, repro,
2005-08-26,-2.36, -1.28, 5.01, 2.56, 1.67, 8.02, repro,
2005-08-27,-0.41, -0.97, 4.09, 2.51, 1.66, 7.96, repro,
2005-08-28,0.42, -1.77, 13.26, 2.50, 1.65, 7.89, repro,
2005-08-29,2.07, 1.46, 4.03, 2.53, 1.64, 7.94, repro,
2005-08-30,-1.57, -0.25, 6.14, 2.58, 1.66, 8.06, repro,
2005-08-31,-2.64, -0.11, 3.09, 2.77, 1.83, 8.68, repro,
2005-09-01,-0.58, 1.46, 1.88, 2.56, 1.66, 7.97, repro,
2005-09-02,0.56, 0.25, 4.47, 2.54, 1.67, 7.99, repro,
2005-09-03,1.65, 0.14, 3.51, 2.51, 1.65, 7.89, repro,
2005-09-04,-1.44, 0.44, -47.55, 2.65, 1.73, 8.35, repro,
2005-09-05,-4.35, 1.13, -55.01, 2.56, 1.66, 7.97, repro,
2005-09-06,-5.34, -1.20, -43.12, 2.61, 1.69, 8.11, repro,
2005-09-07,-5.29, -4.63, -47.06, 2.72, 1.77, 8.58, repro,
2005-09-08,-5.42, -4.26, -36.63, 2.72, 1.79, 8.59, repro,
2005-09-09,-4.85, -3.09, -62.36, 2.67, 1.74, 8.49, repro,
2005-09-10,-0.85, 0.93, 8.00, 2.63, 1.77, 8.65, repro,
2005-09-11,3.13, 2.03, 7.23, 3.70, 2.37, 11.08, repro,
2005-09-12,2.27, 0.04, 7.21, 2.76, 1.79, 8.92, repro,
2005-09-13,1.25, 0.37, 12.00, 2.86, 1.87, 9.04, repro,
2005-09-14,0.75, -0.12, 9.93, 2.68, 1.79, 8.54, repro,
2005-09-15,1.13, 0.09, 6.41, 2.72, 1.85, 8.82, repro,
2005-09-16,-0.83, -0.00, 12.03, 2.63, 1.75, 8.32, repro,
2005-09-17,-1.27, 1.17, 11.18, 2.53, 1.65, 7.93, repro,
2005-09-18,2.47, -0.59, 17.56, 2.54, 1.66, 7.94, repro,
2005-09-19,0.61, -0.29, 16.19, 2.58, 1.71, 8.11, repro,
2005-09-20,-0.92, -0.30, 4.71, 2.52, 1.66, 7.97, repro,
2005-09-21,-1.78, -1.03, 4.88, 2.68, 1.73, 8.32, repro,
2005-09-22,-0.77, 0.27, 2.70, 2.50, 1.63, 7.78, repro,
2005-09-23,-0.21, -0.89, 4.62, 2.56, 1.67, 8.16, repro,
2005-09-24,-3.42, -1.35, 10.05, 2.59, 1.70, 8.08, repro,
2005-09-25,-4.28, -1.13, 9.91, 2.57, 1.68, 8.03, repro,
2005-09-26,-0.64, 0.03, 7.53, 2.58, 1.70, 8.11, repro,
2005-09-27,0.16, 1.30, 4.35, 2.55, 1.67, 7.96, repro,
2005-09-28,-1.16, 1.02, 19.92, 2.64, 1.74, 8.15, repro,
2005-09-29,-2.05, 0.65, 14.37, 2.59, 1.70, 7.99, repro,
2005-09-30,-3.40, 1.69, 9.81, 2.52, 1.65, 7.95, repro,
2005-10-01,-2.13, -0.12, 8.29, 2.50, 1.64, 7.88, repro,
2005-10-02,-0.10, 0.84, 5.19, 2.54, 1.67, 7.94, repro,
2005-10-03,0.32, 0.48, 7.18, 2.57, 1.68, 7.94, repro,
2005-10-04,-0.73, 1.48, 5.19, 2.58, 1.70, 8.07, repro,
2005-10-05,0.65, 0.56, 7.72, 2.55, 1.70, 8.04, repro,
2005-10-06,-3.84, 0.63, 11.14, 2.54, 1.67, 8.04, repro,
2005-10-07,-2.23, 0.25, 15.10, 2.51, 1.64, 7.89, repro,
2005-10-08,-1.59, 0.78, 12.69, 2.56, 1.67, 8.05, repro,
2005-10-09,-3.76, 0.77, 12.38, 2.56, 1.66, 8.00, repro,
2005-10-10,-3.18, 2.46, 10.79, 2.50, 1.65, 7.89, repro,
2005-10-11,-2.68, 1.65, 14.24, 2.53, 1.70, 8.03, repro,
2005-10-12,-3.67, 1.49, 19.24, 2.53, 1.69, 7.98, repro,
2005-10-13,-1.63, -1.57, 13.43, 2.54, 1.67, 8.18, repro,
2005-10-14,-1.01, 0.63, 3.57, 2.55, 1.66, 8.07, repro,
2005-10-15,-0.88, -0.47, 10.71, 2.50, 1.64, 7.87, repro,
2005-10-16,-1.12, 0.64, 10.16, 2.49, 1.63, 7.84, repro,
2005-10-17,0.77, 0.09, 17.00, 2.48, 1.64, 7.83, repro,
2005-10-18,-2.54, 1.91, 8.39, 2.53, 1.67, 7.96, repro,
2005-10-19,-1.87, 0.58, 10.10, 2.67, 1.72, 8.31, repro,
2005-10-20,-0.50, 0.08, 8.31, 2.71, 1.75, 8.26, repro,
2005-10-21,-2.58, 1.04, 14.77, 2.51, 1.63, 7.85, repro,
2005-10-22,-2.67, 2.17, 17.33, 2.50, 1.65, 7.86, repro,
2005-10-23,1.70, 1.26, 17.78, 2.51, 1.65, 7.89, repro,
2005-10-24,-0.13, 0.86, 13.00, 2.52, 1.65, 7.91, repro,
2005-10-25,-1.70, 0.16, 15.54, 2.59, 1.68, 8.09, repro,
2005-10-26,0.24, -0.89, 11.28, 2.63, 1.68, 8.07, repro,
2005-10-27,-1.75, 0.18, 3.75, 2.58, 1.69, 8.15, repro,
2005-10-28,-0.15, 0.86, 9.13, 2.53, 1.66, 7.91, repro,
2005-10-29,-1.06, 0.98, 11.36, 2.58, 1.70, 8.02, repro,
2005-10-30,0.28, 0.76, 3.94, 2.56, 1.66, 8.01, repro,
2005-10-31,-0.55, 0.88, 8.42, 2.66, 1.70, 8.12, repro,
2005-11-01,-1.01, -0.67, 9.33, 2.64, 1.74, 8.35, repro,
2005-11-02,-0.46, -0.09, 12.10, 2.67, 1.75, 8.27, repro,
2005-11-03,-0.08, 0.84, 9.02, 2.63, 1.71, 8.05, repro,
2005-11-04,-1.10, -1.55, 8.66, 2.71, 1.77, 8.42, repro,
2005-11-05,2.05, 1.31, 2.60, 2.71, 1.76, 8.20, repro,
2005-11-06,1.07, 0.03, 10.78, 2.67, 1.75, 8.17, repro,
2005-11-07,-0.73, 0.30, 5.17, 2.66, 1.76, 8.18, repro,
2005-11-08,-1.72, 1.20, 4.13, 2.72, 1.80, 8.42, repro,
2005-11-09,-3.98, -0.92, 9.74, 2.83, 1.87, 8.72, repro,
2005-11-10,-2.92, 1.86, 10.17, 3.08, 2.06, 9.24, repro,
2005-11-11,-4.39, 0.48, 7.96, 2.82, 1.85, 8.77, repro,
2005-11-12,-0.36, 0.33, 7.15, 2.58, 1.68, 7.91, repro,
2005-11-13,0.63, -1.04, 9.65, 2.76, 1.84, 8.56, repro,
2005-11-14,-0.15, 0.13, -0.25, 2.60, 1.68, 7.93, repro,
2005-11-15,0.16, 0.03, -6.04, 2.52, 1.65, 7.85, repro,
2005-11-16,-0.96, -1.63, -5.66, 2.58, 1.68, 8.07, repro,
2005-11-17,-1.32, 2.01, 3.05, 2.54, 1.67, 8.03, repro,
2005-11-18,-2.98, -0.29, -3.02, 2.52, 1.65, 7.93, repro,
2005-11-19,2.02, 0.84, 11.09, 2.53, 1.66, 7.94, repro,
2005-11-20,1.08, 1.66, 1.30, 2.60, 1.70, 8.17, repro,
2005-11-21,-1.88, 1.66, 5.70, 2.71, 1.78, 8.55, repro,
2005-11-22,-4.57, 1.84, 6.55, 2.70, 1.76, 8.29, repro,
2005-11-23,-0.07, 3.43, 6.41, 2.53, 1.65, 7.93, repro,
2005-11-24,-2.89, 2.19, 0.43, 2.53, 1.66, 7.98, repro,
2005-11-25,-0.96, 0.65, 6.47, 2.51, 1.66, 8.04, repro,
2005-11-26,-1.98, 1.63, 0.73, 2.59, 1.70, 8.20, repro,
2005-11-27,-0.42, 0.20, -4.17, 2.59, 1.69, 8.22, repro,
2005-11-28,-0.01, 1.13, -11.05, 2.61, 1.69, 8.23, repro,
2005-11-29,0.88, -0.84, 0.66, 2.48, 1.63, 7.79, repro,
2005-11-30,0.98, -0.49, -5.34, 2.48, 1.64, 7.80, repro,
2005-12-01,0.97, -1.11, -5.84, 2.51, 1.66, 7.98, repro,
2005-12-02,0.73, -0.95, 3.26, 2.48, 1.67, 7.99, repro,
2005-12-03,0.18, -0.15, 4.12, 2.50, 1.66, 7.93, repro,
2005-12-04,0.16, -0.55, -1.58, 2.49, 1.65, 7.84, repro,
2005-12-05,0.25, 0.63, -6.03, 2.53, 1.67, 7.97, repro,
2005-12-06,-3.22, 0.14, 1.76, 2.54, 1.67, 7.93, repro,
2005-12-07,-6.93, 2.24, 9.08, 2.56, 1.68, 7.98, repro,
2005-12-08,-6.33, 0.34, 2.99, 2.54, 1.67, 7.99, repro,
2005-12-09,-2.05, 0.17, -1.28, 2.51, 1.64, 7.92, repro,
2005-12-10,-2.81, 0.44, 4.17, 2.51, 1.65, 7.91, repro,
2005-12-11,-3.23, 0.83, -6.40, 2.53, 1.69, 8.07, repro,
2005-12-12,-1.53, -0.12, -1.52, 2.52, 1.63, 7.83, repro,
2005-12-13,-0.58, -0.18, -10.46, 2.49, 1.64, 7.86, repro,
2005-12-14,-1.24, 1.49, -13.73, 2.53, 1.64, 7.91, repro,
2005-12-15,-1.89, 0.83, -14.06, 2.55, 1.69, 8.06, repro,
2005-12-16,-7.20, 3.53, -3.15, 2.53, 1.67, 7.99, repro,
2005-12-17,-0.44, 1.72, -20.86, 2.54, 1.66, 7.78, repro,
2005-12-18,-2.37, 1.36, -15.76, 2.49, 1.65, 7.93, repro,
2005-12-19,0.41, 0.71, -5.15, 2.59, 1.73, 8.15, repro,
2005-12-20,-1.23, 0.76, 2.41, 2.65, 1.78, 8.34, repro,
2005-12-21,-0.32, 1.25, 5.55, 2.62, 1.75, 8.28, repro,
2005-12-22,-2.58, 1.24, 2.31, 2.61, 1.73, 8.19, repro,
2005-12-23,-5.74, 2.17, -2.94, 2.65, 1.77, 8.22, repro,
2005-12-24,-3.39, 3.83, -7.08, 2.66, 1.86, 9.03, repro,
2005-12-25,-0.94, 0.91, -2.93, 2.56, 1.73, 8.18, repro,
2005-12-26,-1.17, -0.19, 4.07, 2.52, 1.71, 7.99, repro,
2005-12-27,-2.93, 0.93, 2.79, 2.65, 1.85, 8.90, repro,
2005-12-28,-2.37, 2.11, -10.23, 2.57, 1.70, 7.94, repro,
2005-12-29,-1.44, 1.81, -10.81, 2.63, 1.78, 8.76, repro,
2005-12-30,-0.19, 1.77, -0.54, 2.67, 1.87, 8.96, repro,
2005-12-31,-1.73, 2.41, 6.44, 2.61, 1.76, 8.41, repro,
2006-01-01,-0.44, 0.99, 6.69, 2.59, 1.78, 8.45, repro,
2006-01-02,-0.16, 1.08, -3.83, 2.53, 1.71, 7.94, repro,
2006-01-03,0.21, 1.31, -5.55, 2.78, 1.89, 9.39, repro,
2006-01-04,-2.16, 1.29, -5.68, 2.66, 1.82, 9.27, repro,
2006-01-05,-0.77, 2.43, -4.63, 2.61, 1.78, 8.51, repro,
2006-01-06,-1.77, 1.95, -14.50, 2.61, 1.82, 8.82, repro,
2006-01-07,-1.39, 1.89, -8.36, 2.57, 1.73, 8.14, repro,
2006-01-08,-0.21, 3.13, -4.31, 2.66, 1.80, 8.80, repro,
2006-01-09,-2.21, 1.27, -0.33, 2.66, 1.81, 8.75, repro,
2006-01-10,-3.09, 1.08, -5.36, 2.65, 1.80, 8.71, repro,
2006-01-11,-0.92, -0.15, 1.28, 2.68, 1.78, 8.64, repro,
2006-01-12,-1.82, 2.00, -6.61, 2.57, 1.74, 8.26, repro,
2006-01-13,0.97, 1.94, -1.95, 2.64, 1.83, 9.24, repro,
2006-01-14,1.01, 1.32, 0.98, 2.54, 1.72, 8.01, repro,
2006-01-15,1.01, 0.76, -1.10, 2.52, 1.67, 7.78, repro,
2006-01-16,1.00, 0.52, 1.21, 2.76, 1.93, 9.00, repro,
2006-01-17,0.61, 0.49, 4.98, 2.56, 1.73, 7.99, repro,
2006-01-18,0.41, -0.12, 4.41, 2.49, 1.70, 7.91, repro,
2006-01-19,-1.80, 1.83, -2.72, 2.62, 1.75, 8.29, repro,
2006-01-20,-0.79, 2.18, -8.69, 2.56, 1.70, 7.93, repro,
2006-01-21,-0.88, 2.48, -11.75, 2.53, 1.68, 7.89, repro,
2006-01-22,-0.48, 3.54, -3.93, 2.56, 1.68, 8.02, repro,
2006-01-23,1.64, 2.37, -2.11, 2.50, 1.68, 7.89, repro,
2006-01-24,0.12, 2.08, -11.18, 2.60, 1.72, 7.98, repro,
2006-01-25,-1.68, 1.67, -30.15, 2.47, 1.62, 7.75, repro,
2006-01-26,-0.62, 1.21, -38.15, 2.43, 1.64, 7.75, repro,
2006-01-27,0.71, 0.11, -38.57, 2.43, 1.62, 7.67, repro,
2006-01-28,0.20, 1.36, -1.45, 2.44, 1.62, 7.70, repro,
2006-01-29,-1.32, 4.04, -8.47, 2.42, 1.60, 7.60, repro,
2006-01-30,-1.66, 2.82, -2.33, 2.48, 1.61, 7.70, repro,
2006-01-31,-2.19, 3.62, 0.99, 2.42, 1.61, 7.63, repro,
2006-02-01,-0.93, 4.20, -10.15, 2.43, 1.62, 7.63, repro,
2006-02-02,-2.08, 3.15, -8.06, 2.43, 1.62, 7.57, repro,
2006-02-03,-2.06, 2.90, -6.67, 2.43, 1.60, 7.58, repro,
2006-02-04,-0.17, 1.84, -5.66, 2.45, 1.61, 7.61, repro,
2006-02-05,-1.17, 4.38, -11.67, 2.49, 1.62, 7.73, repro,
2006-02-06,-1.45, 5.63, -16.49, 2.46, 1.64, 7.75, repro,
2006-02-07,-2.19, 4.27, -11.31, 2.49, 1.66, 7.95, repro,
2006-02-08,-2.33, 2.53, -27.48, 2.44, 1.63, 7.64, repro,
2006-02-09,-1.64, 3.58, -23.50, 2.51, 1.63, 7.74, repro,
2006-02-10,-1.48, 3.22, -19.81, 2.67, 1.71, 8.03, repro,
2006-02-11,-0.47, 3.56, -10.52, 2.47, 1.63, 7.76, repro,
2006-02-12,1.29, 2.83, -16.84, 2.47, 1.65, 7.85, repro,
2006-02-13,-1.09, 1.30, -21.07, 2.45, 1.62, 7.63, repro,
2006-02-14,-0.16, 2.74, -18.81, 2.45, 1.62, 7.67, repro,
2006-02-15,-0.14, 2.54, -11.45, 2.50, 1.63, 7.77, repro,
2006-02-16,0.34, 3.01, -21.65, 2.46, 1.62, 7.75, repro,
2006-02-17,1.31, 2.45, -19.27, 2.46, 1.62, 7.78, repro,
2006-02-18,0.08, 2.44, -12.85, 2.48, 1.63, 7.82, repro,
2006-02-19,-0.39, 1.99, -13.83, 2.46, 1.62, 7.75, repro,
2006-02-20,-0.00, 1.15, -15.09, 2.51, 1.63, 7.89, repro,
2006-02-21,1.96, 1.79, -18.00, 2.51, 1.64, 7.87, repro,
2006-02-22,1.38, 1.54, -17.26, 2.54, 1.66, 7.96, repro,
2006-02-23,-0.96, 0.66, -16.35, 2.46, 1.61, 7.73, repro,
2006-02-24,0.53, 1.20, -8.98, 2.45, 1.61, 7.70, repro,
2006-02-25,2.01, 2.63, -17.14, 2.49, 1.63, 8.00, repro,
2006-02-26,1.57, 2.09, -6.39, 2.50, 1.61, 7.70, repro,
2006-02-27,2.43, 2.04, 1.45, 2.45, 1.62, 7.73, repro,
2006-02-28,1.91, 2.32, -0.70, 2.53, 1.65, 7.88, repro,
2006-03-01,1.84, 2.73, -2.69, 2.59, 1.66, 8.04, repro,
2006-03-02,2.90, 2.14, -7.88, 2.55, 1.64, 7.86, repro,
2006-03-03,1.86, 2.33, -3.89, 2.53, 1.65, 7.94, repro,
2006-03-04,2.45, 2.03, -4.33, 2.48, 1.62, 7.70, repro,
2006-03-05,1.93, 2.15, -7.63, 2.47, 1.62, 7.71, repro,
2006-03-06,-0.15, 2.65, -8.16, 2.47, 1.63, 7.75, repro,
2006-03-07,-0.63, 2.11, -9.88, 2.52, 1.64, 7.82, repro,
2006-03-08,-0.43, 1.11, -10.96, 2.53, 1.63, 7.84, repro,
2006-03-09,2.13, 0.66, 1.19, 2.52, 1.65, 7.91, repro,
2006-03-10,-0.79, 0.52, 4.90, 2.45, 1.62, 7.69, repro,
2006-03-11,2.18, 1.21, -10.34, 2.50, 1.64, 7.77, repro,
2006-03-12,1.71, 2.36, -8.01, 2.53, 1.64, 7.83, repro,
2006-03-13,2.26, 2.73, -12.27, 2.56, 1.69, 8.05, repro,
2006-03-14,2.16, -0.94, -0.66, 2.54, 1.64, 7.85, repro,
2006-03-15,1.30, 1.47, -5.69, 2.57, 1.68, 8.01, repro,
2006-03-16,1.38, 2.92, -10.83, 2.59, 1.67, 7.90, repro,
2006-03-17,2.52, 3.31, -14.19, 2.59, 1.66, 7.86, repro,
2006-03-18,2.43, 2.35, -9.72, 2.72, 1.70, 8.27, repro,
2006-03-19,-0.68, 3.79, -26.72, 2.57, 1.65, 7.93, repro,
2006-03-20,-4.95, 4.06, -18.06, 2.64, 1.67, 8.03, repro,
2006-03-21,0.27, 2.40, -16.07, 2.50, 1.65, 7.87, repro,
2006-03-22,2.46, 2.94, -19.00, 2.54, 1.67, 7.83, repro,
2006-03-23,1.31, 2.75, -20.33, 2.57, 1.68, 7.83, repro,
2006-03-24,1.68, 2.39, -13.05, 2.56, 1.68, 7.84, repro,
2006-03-25,1.35, 2.55, -5.13, 2.64, 1.69, 7.95, repro,
2006-03-26,0.01, 2.85, -17.53, 2.59, 1.70, 7.98, repro,
2006-03-27,-0.01, 2.26, -10.94, 2.56, 1.70, 7.94, repro,
2006-03-28,-0.80, 2.38, -11.85, 2.50, 1.65, 7.68, repro,
2006-03-29,0.16, 2.60, -9.98, 2.44, 1.61, 7.62, repro,
2006-03-30,-0.36, 2.62, -9.24, 2.43, 1.60, 7.60, repro,
2006-03-31,0.28, 2.60, -6.32, 2.49, 1.61, 7.71, repro,
2006-04-01,-0.60, 2.65, -5.97, 2.44, 1.63, 7.71, repro,
2006-04-02,-0.64, 2.03, -6.85, 2.44, 1.65, 7.94, repro,
2006-04-03,-0.75, 2.64, -12.81, 2.46, 1.62, 7.63, repro,
2006-04-04,0.25, 3.46, -12.40, 2.43, 1.60, 7.55, repro,
2006-04-05,0.43, 3.72, -8.01, 2.84, 1.90, 8.72, repro,
2006-04-06,-2.19, 1.96, -13.90, 2.60, 1.73, 8.43, repro,
2006-04-07,-1.80, 3.19, -15.85, 2.58, 1.69, 8.12, repro,
2006-04-08,-1.71, 2.33, -11.30, 2.58, 1.70, 8.09, repro,
2006-04-09,-1.25, 1.10, -5.10, 2.61, 1.74, 8.38, repro,
2006-04-10,-1.23, 1.36, -13.22, 2.46, 1.63, 7.71, repro,
2006-04-11,0.33, 2.05, -7.84, 2.50, 1.66, 8.07, repro,
2006-04-12,-2.63, 2.29, -11.66, 2.44, 1.66, 7.99, repro,
2006-04-13,-4.30, 2.29, -7.76, 2.45, 1.62, 7.74, repro,
2006-04-14,-3.38, 2.25, 2.26, 2.88, 1.89, 9.06, repro,
2006-04-15,-0.24, 1.55, 6.11, 2.56, 1.68, 7.93, repro,
2006-04-16,0.12, 1.46, 1.37, 2.47, 1.62, 7.69, repro,
2006-04-17,0.83, 2.82, -1.95, 2.46, 1.62, 7.70, repro,
2006-04-18,-0.78, 2.50, -14.61, 2.43, 1.63, 7.75, repro,
2006-04-19,-0.80, 3.23, -5.63, 2.44, 1.62, 7.70, repro,
2006-04-20,-1.19, 2.41, -12.25, 2.50, 1.66, 7.84, repro,
2006-04-21,0.22, 2.65, -12.16, 2.48, 1.63, 7.80, repro,
2006-04-22,-1.51, 2.91, -15.14, 2.55, 1.70, 7.99, repro,
2006-04-23,-3.17, 2.52, -18.21, 2.42, 1.64, 7.73, repro,
2006-04-24,-1.08, 1.99, -19.45, 2.47, 1.64, 7.84, repro,
2006-04-25,1.63, 2.35, -13.18, 2.50, 1.68, 7.93, repro,
2006-04-26,1.57, 3.17, -10.47, 2.42, 1.63, 7.71, repro,
2006-04-27,-0.81, 3.04, -17.94, 2.53, 1.66, 7.92, repro,
2006-04-28,-1.40, 2.18, -11.63, 2.46, 1.65, 7.80, repro,
2006-04-29,0.09, 2.25, -13.16, 2.43, 1.64, 7.70, repro,
2006-04-30,0.06, 2.28, -14.97, 2.56, 1.67, 7.96, repro,
2006-05-01,-0.44, 3.36, -15.13, 2.45, 1.63, 7.74, repro,
2006-05-02,-2.75, 3.53, -19.07, 2.46, 1.63, 7.74, repro,
2006-05-03,-1.15, 2.22, -16.93, 2.47, 1.63, 7.80, repro,
2006-05-04,1.74, 0.59, -16.89, 2.56, 1.68, 8.01, repro,
2006-05-05,-0.01, 4.28, -17.96, 2.45, 1.65, 7.81, repro,
2006-05-06,-0.47, 1.58, -7.38, 2.51, 1.65, 7.85, repro,
2006-05-07,-1.45, 2.96, -12.31, 2.52, 1.63, 7.85, repro,
2006-05-08,2.25, 0.44, -14.26, 2.50, 1.62, 7.80, repro,
2006-05-09,-2.20, 1.85, -22.62, 2.48, 1.67, 7.82, repro,
2006-05-10,-1.91, 3.85, -22.19, 2.45, 1.63, 7.78, repro,
2006-05-11,-1.91, 2.82, -13.26, 2.43, 1.63, 7.73, repro,
2006-05-12,0.88, 2.21, -16.30, 2.42, 1.61, 7.67, repro,
2006-05-13,1.92, 2.35, -18.20, 2.46, 1.62, 7.75, repro,
2006-05-14,2.65, 0.61, -20.95, 2.45, 1.63, 7.74, repro,
2006-05-15,1.91, 1.95, -13.95, 2.42, 1.61, 7.72, repro,
2006-05-16,2.57, 2.50, -14.01, 2.46, 1.64, 7.98, repro,
2006-05-17,-1.04, 2.78, -14.87, 2.47, 1.65, 8.00, repro,
2006-05-18,0.61, 3.48, -18.31, 2.52, 1.65, 7.84, repro,
2006-05-19,2.54, 2.27, -18.49, 2.51, 1.68, 7.83, repro,
2006-05-20,3.84, 1.74, -8.86, 2.49, 1.68, 7.81, repro,
2006-05-21,1.70, 1.93, -7.25, 2.50, 1.68, 7.85, repro,
2006-05-22,1.14, 0.75, 0.49, 2.56, 1.72, 8.14, repro,
2006-05-23,0.81, 0.29, -10.08, 2.53, 1.68, 7.91, repro,
2006-05-24,3.38, 2.39, -13.03, 2.56, 1.71, 7.99, repro,
2006-05-25,1.58, 0.60, -9.91, 2.60, 1.83, 8.47, repro,
2006-05-26,2.20, 0.75, -9.61, 2.54, 1.75, 8.19, repro,
2006-05-27,2.29, 1.27, -8.24, 2.52, 1.70, 7.95, repro,
2006-05-28,1.62, 1.21, -4.08, 2.50, 1.70, 7.91, repro,
2006-05-29,3.88, 1.60, -11.43, 2.55, 1.70, 8.04, repro,
2006-05-30,2.46, 1.65, -10.83, 2.48, 1.69, 7.87, repro,
2006-05-31,2.83, 2.55, -7.52, 2.58, 1.72, 8.02, repro,
2006-06-01,1.51, 1.26, -10.89, 2.50, 1.68, 7.83, repro,
2006-06-02,2.27, 0.95, -7.16, 2.74, 1.80, 8.38, repro,
2006-06-03,2.79, 1.50, -13.98, 2.67, 1.76, 8.24, repro,
2006-06-04,2.57, 0.64, -12.38, 2.61, 1.76, 8.26, repro,
2006-06-05,1.30, 1.70, -11.45, 2.56, 1.72, 8.05, repro,
2006-06-06,1.03, 1.78, -14.41, 2.69, 1.75, 8.33, repro,
2006-06-07,1.76, 0.90, -15.91, 2.63, 1.73, 8.14, repro,
2006-06-08,2.23, 0.63, -16.13, 2.55, 1.70, 7.97, repro,
2006-06-09,3.19, 1.90, -9.70, 2.53, 1.67, 7.84, repro,
2006-06-10,1.00, 1.21, -10.48, 2.48, 1.70, 7.92, repro,
2006-06-11,2.70, 1.06, -10.13, 2.52, 1.67, 7.87, repro,
2006-06-12,0.77, 1.30, -8.81, 2.53, 1.69, 7.92, repro,
2006-06-13,2.55, 1.33, -5.94, 2.57, 1.68, 7.92, repro,
2006-06-14,1.43, 2.00, -6.27, 2.54, 1.69, 7.92, repro,
2006-06-15,-0.00, 2.32, 2.86, 2.55, 1.69, 7.89, repro,
2006-06-16,2.78, 1.75, -2.34, 2.52, 1.69, 7.86, repro,
2006-06-17,0.70, 2.83, -0.50, 2.53, 1.69, 7.91, repro,
2006-06-18,-1.87, 1.50, -9.39, 2.65, 1.74, 8.10, repro,
2006-06-19,-1.11, 2.71, -17.17, 2.62, 1.72, 8.02, repro,
2006-06-20,0.14, 0.95, -10.78, 2.59, 1.72, 7.98, repro,
2006-06-21,0.43, 2.16, -9.75, 2.54, 1.74, 8.00, repro,
2006-06-22,-2.23, 3.88, -16.87, 2.58, 1.73, 8.01, repro,
2006-06-23,0.99, 3.19, -12.11, 2.59, 1.75, 8.11, repro,
2006-06-24,-0.08, 2.50, -11.29, 2.62, 1.72, 8.08, repro,
2006-06-25,-0.68, 3.47, -13.51, 2.62, 1.73, 8.05, repro,
2006-06-26,2.48, 2.62, -14.18, 2.59, 1.73, 8.01, repro,
2006-06-27,1.27, 1.63, -5.32, 2.56, 1.73, 7.98, repro,
2006-06-28,2.63, 1.84, -8.05, 2.63, 1.74, 8.11, repro,
2006-06-29,-0.53, 2.16, -7.30, 2.55, 1.67, 7.91, repro,
2006-06-30,1.89, 2.04, -3.58, 2.49, 1.66, 8.06, repro,
2006-07-01,1.89, 0.40, -6.25, 2.49, 1.67, 8.11, repro,
2006-07-02,1.44, 1.77, -8.64, 2.46, 1.68, 8.11, repro,
2006-07-03,1.46, 2.04, -14.95, 2.52, 1.69, 8.27, repro,
2006-07-04,1.40, 2.56, -12.16, 2.55, 1.77, 8.36, repro,
2006-07-05,1.82, 2.07, -14.78, 2.54, 1.67, 8.18, repro,
2006-07-06,2.11, 1.00, -10.59, 2.51, 1.70, 8.27, repro,
2006-07-07,2.12, 1.99, -6.64, 2.54, 1.71, 8.23, repro,
2006-07-08,1.88, 1.71, -1.93, 2.48, 1.68, 8.16, repro,
2006-07-09,1.62, 0.99, -7.20, 2.57, 1.71, 8.49, repro,
2006-07-10,0.78, 1.13, -5.80, 2.53, 1.70, 8.27, repro,
2006-07-11,0.92, 2.05, -2.25, 2.52, 1.67, 8.12, repro,
2006-07-12,3.17, 1.75, 0.08, 2.51, 1.68, 8.13, repro,
2006-07-13,2.37, 1.46, -1.72, 2.50, 1.66, 8.08, repro,
2006-07-14,0.08, 1.91, 1.80, 2.50, 1.69, 8.18, repro,
2006-07-15,-0.36, 0.68, -0.99, 2.54, 1.68, 8.17, repro,
2006-07-16,0.79, 1.54, -6.62, 2.50, 1.67, 8.05, repro,
2006-07-17,0.64, 1.37, -4.89, 2.58, 1.73, 8.38, repro,
2006-07-18,1.80, 1.53, -3.43, 2.45, 1.62, 7.73, repro,
2006-07-19,1.60, 1.16, -0.73, 2.45, 1.63, 7.77, repro,
2006-07-20,0.56, 0.99, -6.00, 2.46, 1.64, 7.84, repro,
2006-07-21,-1.35, 1.65, -6.52, 2.49, 1.62, 7.77, repro,
2006-07-22,-0.95, 0.83, -2.64, 2.46, 1.62, 7.71, repro,
2006-07-23,1.23, 2.14, -6.55, 2.48, 1.64, 7.83, repro,
2006-07-24,-1.88, 2.59, -5.47, 2.45, 1.62, 7.75, repro,
2006-07-25,0.73, 0.23, 0.79, 2.49, 1.65, 7.92, repro,
2006-07-26,-0.17, 1.21, -7.56, 2.50, 1.63, 7.79, repro,
2006-07-27,-0.02, 1.33, -4.24, 2.48, 1.61, 7.68, repro,
2006-07-28,-0.75, 0.55, 8.95, 2.51, 1.68, 7.97, repro,
2006-07-29,-0.02, 0.37, 1.56, 2.48, 1.62, 7.78, repro,
2006-07-30,0.03, 0.14, 1.81, 2.52, 1.67, 7.90, repro,
2006-07-31,-1.48, 0.41, 3.42, 2.48, 1.65, 7.81, repro,
2006-08-01,-2.97, 3.49, 1.37, 2.49, 1.62, 7.73, repro,
2006-08-02,-1.48, 1.55, -6.58, 2.51, 1.66, 7.80, repro,
2006-08-03,0.20, 0.15, 3.96, 2.58, 1.67, 7.98, repro,
2006-08-04,0.25, 0.95, -0.18, 2.58, 1.75, 8.14, repro,
2006-08-05,-0.44, 2.07, -2.07, 2.54, 1.66, 7.94, repro,
2006-08-06,-2.21, -0.05, -1.21, 2.53, 1.65, 7.89, repro,
2006-08-07,0.14, -1.08, 4.96, 2.76, 1.80, 8.46, repro,
2006-08-08,0.02, 0.38, 1.92, 2.47, 1.64, 7.84, repro,
2006-08-09,0.07, 0.55, -1.62, 2.46, 1.65, 7.86, repro,
2006-08-10,-0.56, 1.15, -6.27, 2.44, 1.64, 7.79, repro,
2006-08-11,-0.33, 1.81, 0.06, 2.48, 1.63, 7.78, repro,
2006-08-12,-0.65, 0.91, 4.29, 2.50, 1.62, 7.82, repro,
2006-08-13,-0.78, 0.65, 0.84, 2.46, 1.63, 7.75, repro,
2006-08-14,-0.99, 0.06, 5.46, 2.47, 1.65, 7.82, repro,
2006-08-15,0.61, 1.12, 4.84, 2.53, 1.67, 8.07, repro,
2006-08-16,1.04, 0.10, 6.36, 2.50, 1.62, 7.80, repro,
2006-08-17,-1.00, -0.57, 2.48, 2.50, 1.62, 7.77, repro,
2006-08-18,-0.32, 0.77, 2.35, 2.54, 1.69, 7.95, repro,
2006-08-19,-0.12, 0.48, 4.91, 2.57, 1.69, 8.05, repro,
2006-08-20,-0.41, 2.51, 4.66, 2.53, 1.71, 8.11, repro,
2006-08-21,-0.63, 0.16, 7.57, 2.54, 1.67, 8.04, repro,
2006-08-22,-0.23, 1.43, 3.17, 2.52, 1.65, 7.97, repro,
2006-08-23,1.64, 1.88, 1.77, 2.50, 1.66, 7.95, repro,
2006-08-24,1.42, 1.72, 3.55, 2.53, 1.66, 7.94, repro,
2006-08-25,-0.05, 2.01, 3.43, 2.55, 1.72, 8.27, repro,
2006-08-26,-0.07, 1.27, 0.84, 2.63, 1.73, 8.28, repro,
2006-08-27,-2.11, 1.46, 2.58, 2.65, 1.75, 8.36, repro,
2006-08-28,0.10, 1.31, 5.37, 2.61, 1.73, 8.26, repro,
2006-08-29,2.52, -0.01, 13.18, 2.62, 1.72, 8.19, repro,
2006-08-30,1.49, 0.69, 9.55, 2.61, 1.73, 8.23, repro,
2006-08-31,-1.73, 1.29, 4.14, 2.59, 1.75, 8.32, repro,
2006-09-01,-2.23, 1.79, 11.54, 2.61, 1.73, 8.24, repro,
2006-09-02,-0.03, 1.55, 7.82, 2.64, 1.73, 8.33, repro,
2006-09-03,1.68, 0.60, 5.70, 2.61, 1.73, 8.25, repro,
2006-09-04,1.12, -0.90, 12.50, 2.70, 1.78, 8.51, repro,
2006-09-05,-0.62, 0.73, -2.31, 2.66, 1.81, 8.52, repro,
2006-09-06,-2.10, 0.55, 2.60, 2.71, 1.79, 8.52, repro,
2006-09-07,-1.17, 0.15, 15.20, 2.72, 1.76, 8.51, repro,
2006-09-08,-1.57, -0.23, 15.13, 2.71, 1.78, 8.52, repro,
2006-09-09,-2.90, 0.45, 8.89, 2.59, 1.68, 8.09, repro,
2006-09-10,-1.99, -1.10, 9.31, 2.50, 1.69, 7.98, repro,
2006-09-11,-1.05, 0.58, 13.19, 2.57, 1.68, 8.07, repro,
2006-09-12,-1.20, 0.39, 9.66, 2.54, 1.68, 8.06, repro,
2006-09-13,-1.56, 0.87, 12.59, 2.55, 1.69, 8.05, repro,
2006-09-14,-2.70, -0.54, 2.45, 2.69, 1.78, 8.40, repro,
2006-09-15,-1.04, 0.78, 14.88, 2.60, 1.72, 8.13, repro,
2006-09-16,-1.06, 0.44, 12.74, 2.50, 1.65, 7.95, repro,
2006-09-17,-2.54, 2.34, 11.33, 2.50, 1.63, 7.88, repro,
2006-09-18,-1.41, 1.65, 10.47, 2.51, 1.65, 7.96, repro,
2006-09-19,-1.60, 1.47, 17.14, 2.53, 1.64, 7.99, repro,
2006-09-20,-1.16, 0.72, 11.02, 2.53, 1.65, 7.97, repro,
2006-09-21,-1.44, 0.42, 13.34, 2.59, 1.70, 8.17, repro,
2006-09-22,-2.58, 1.54, 11.37, 2.61, 1.72, 8.25, repro,
2006-09-23,-1.34, -0.12, 11.08, 2.54, 1.68, 8.08, repro,
2006-09-24,-2.00, 0.48, 9.46, 2.62, 1.72, 8.24, repro,
2006-09-25,-2.94, -0.83, 10.70, 2.58, 1.69, 8.12, repro,
2006-09-26,-2.26, 0.55, 5.46, 2.45, 1.64, 7.88, repro,
2006-09-27,-4.81, 3.19, 0.14, 2.53, 1.67, 8.25, repro,
2006-09-28,-3.40, 1.64, 13.85, 2.48, 1.64, 7.91, repro,
2006-09-29,-2.36, -0.15, 13.18, 2.54, 1.64, 8.00, repro,
2006-09-30,-3.53, -0.74, 19.30, 2.61, 1.69, 8.26, repro,
2006-10-01,-2.08, -0.07, 14.16, 2.54, 1.66, 8.02, repro,
2006-10-02,-1.95, 1.29, 9.21, 2.63, 1.72, 8.43, repro,
2006-10-03,-2.20, 1.15, 6.01, 2.64, 1.75, 8.21, repro,
2006-10-04,-3.09, 2.35, 7.20, 2.55, 1.65, 8.05, repro,
2006-10-05,-3.52, -0.55, 11.78, 2.55, 1.64, 7.99, repro,
2006-10-06,-2.36, -0.26, 12.35, 2.55, 1.65, 8.04, repro,
2006-10-07,-1.15, 1.03, 5.66, 2.57, 1.67, 8.02, repro,
2006-10-08,-0.50, 0.30, 5.87, 2.56, 1.69, 8.10, repro,
2006-10-09,-1.19, 1.57, 1.78, 2.53, 1.66, 8.01, repro,
2006-10-10,-7.44, 2.56, 4.84, 2.54, 1.65, 8.02, repro,
2006-10-11,-5.38, 1.90, 12.51, 2.55, 1.65, 8.05, repro,
2006-10-12,-1.00, 0.45, 6.53, 2.53, 1.64, 8.01, repro,
2006-10-13,-0.90, 0.23, 8.00, 2.51, 1.65, 7.99, repro,